TimeEST,TemperatureF,Dew PointF,Humidity,Sea Level PressureIn,VisibilityMPH,Wind Direction,Wind SpeedMPH,Gust SpeedMPH,PrecipitationIn,Events,Conditions,WindDirDegrees,DateUTC
12:54 AM,18.0,5.0,57,30.23,10.0,WNW,18.4,26.5,N/A,,Clear,300,2013-12-25 05:54:00
1:54 AM,17.1,3.9,56,30.25,10.0,West,17.3,25.3,N/A,,Clear,280,2013-12-25 06:54:00
2:54 AM,16.0,3.9,59,30.27,10.0,West,15.0,27.6,N/A,,Clear,280,2013-12-25 07:54:00
3:54 AM,15.1,3.0,59,30.30,10.0,WNW,10.4,25.3,N/A,,Clear,300,2013-12-25 08:54:00
4:54 AM,12.9,3.0,65,30.32,10.0,WNW,13.8,-,N/A,,Clear,290,2013-12-25 09:54:00
5:54 AM,12.9,1.9,62,30.35,10.0,WNW,13.8,-,N/A,,Clear,290,2013-12-25 10:54:00
6:54 AM,10.9,1.9,67,30.39,10.0,NW,10.4,-,N/A,,Clear,310,2013-12-25 11:54:00
7:54 AM,12.0,1.0,61,30.41,10.0,North,9.2,-,N/A,,Clear,350,2013-12-25 12:54:00
8:54 AM,12.0,-2.0,53,30.45,10.0,NW,15.0,-,N/A,,Clear,310,2013-12-25 13:54:00
9:54 AM,12.9,-2.0,51,30.46,10.0,NW,12.7,18.4,N/A,,Clear,310,2013-12-25 14:54:00
10:54 AM,15.1,-2.0,47,30.44,10.0,North,10.4,-,N/A,,Clear,10,2013-12-25 15:54:00
11:54 AM,17.1,-0.9,45,30.45,10.0,North,9.2,-,N/A,,Clear,360,2013-12-25 16:54:00
12:54 PM,19.0,-0.0,43,30.44,10.0,NNE,9.2,-,N/A,,Clear,20,2013-12-25 17:54:00
1:54 PM,19.9,-0.0,42,30.46,10.0,NW,6.9,-,N/A,,Clear,310,2013-12-25 18:54:00
2:54 PM,19.9,-0.9,40,30.47,10.0,Calm,Calm,-,N/A,,Clear,0,2013-12-25 19:54:00
3:54 PM,19.0,-0.0,43,30.49,10.0,East,4.6,-,N/A,,Clear,90,2013-12-25 20:54:00
4:54 PM,18.0,-0.0,45,30.51,10.0,ENE,3.5,-,N/A,,Clear,60,2013-12-25 21:54:00
5:54 PM,17.1,-0.9,45,30.52,10.0,ESE,3.5,-,N/A,,Clear,110,2013-12-25 22:54:00
6:54 PM,17.1,-0.9,45,30.52,10.0,SE,5.8,-,N/A,,Clear,140,2013-12-25 23:54:00
7:54 PM,16.0,1.0,52,30.52,10.0,SE,5.8,-,N/A,,Clear,130,2013-12-26 00:54:00
8:54 PM,15.1,1.0,54,30.52,10.0,SE,5.8,-,N/A,,Clear,140,2013-12-26 01:54:00
9:54 PM,15.1,1.9,56,30.51,10.0,SSE,4.6,-,N/A,,Clear,160,2013-12-26 02:54:00
10:54 PM,15.1,1.9,56,30.49,10.0,SSE,5.8,-,N/A,,Clear,150,2013-12-26 03:54:00
11:54 PM,15.1,3.0,59,30.48,10.0,South,4.6,-,N/A,,Mostly Cloudy,170,2013-12-26 04:54:00